Dades meteomassalio
Diari Summary for Gener 23, 2017 Units:  English    Metric   Both
« Previous Day
Next Day »
Diari Semanal Mensual Anual Personalitzat
  Maxima: Minima: Mijana:
Temperatura: 50.7 °F 40.3 °F 44.4 °F
Rosada: 39.4 °F 34.3 °F 37 °F
Humitat: 90 % 60 % 76 %
Velocitat del vent: 16.1 mph 0 mph 6.7 mph
Racha vent: 16.1 mph - -
Vent:- - WNW
Pressio: 30.2 in 30.1 in -
Pluja: 0.06 in    
Historical Graphs
 
 
Tabular Data for Gener 23, 2017
Time Temperature Dew Point Pressure Wind Wind Speed Wind Gust Humidity Rainfall Rate (Hourly) solar Conditions
00:02 42.4 °F 38.3 °F 30.1 in WNW 12.7 mph 12.7 mph 85 % 0 in 0.0 W/m2 RA
00:07 42.4 °F 38.3 °F 30.1 in WNW 9.2 mph 9.2 mph 85 % 0 in 0.0 W/m2 CLR
00:12 42.3 °F 38.5 °F 30.1 in WNW 8.1 mph 8.1 mph 86 % 0 in 0.0 W/m2 CLR
00:17 42.3 °F 38.5 °F 30.1 in WNW 10.4 mph 10.4 mph 86 % 0 in 0.0 W/m2 CLR
00:22 42.3 °F 38.5 °F 30.1 in WNW 6.9 mph 6.9 mph 86 % 0 in 0.0 W/m2 CLR
00:27 42.4 °F 38.3 °F 30.1 in WNW 13.8 mph 13.8 mph 85 % 0 in 0.0 W/m2 CLR
00:28 42.4 °F 38.3 °F 30.1 in WNW 13.8 mph 13.8 mph 85 % 0 in 0.0 W/m2 CLR
00:33 42.6 °F 38.1 °F 30.1 in WNW 12.7 mph 12.7 mph 84 % 0 in 0.0 W/m2 CLR
00:38 42.8 °F 38.3 °F 30.1 in WNW 12 mph 12 mph 84 % 0 in 0.0 W/m2 CLR
00:43 42.8 °F 37.9 °F 30.1 in West 12.7 mph 12.7 mph 83 % 0 in 0.0 W/m2 CLR
00:48 42.6 °F 38.1 °F 30.1 in WNW 8.1 mph 8.1 mph 84 % 0 in 0.0 W/m2 CLR
00:53 42.6 °F 38.1 °F 30.1 in West 5 mph 5 mph 84 % 0 in 0.0 W/m2 CLR
00:58 42.4 °F 37.9 °F 30.1 in West 5 mph 5 mph 84 % 0 in 0.0 W/m2 CLR
01:03 42.4 °F 37.9 °F 30.1 in Calm     84 % 0 in 0.0 W/m2 CLR
01:08 42.4 °F 37.9 °F 30.1 in Calm     84 % 0 in 0.0 W/m2 CLR
01:13 42.4 °F 38.3 °F 30.1 in Calm     85 % 0.01 in 0.0 W/m2 RA
01:18 42.3 °F 38.1 °F 30.1 in Calm     85 % 0.02 in 0.0 W/m2 RA
01:23 42.3 °F 37.9 °F 30.1 in Calm     85 % 0.02 in 0.0 W/m2 CLR
01:28 42.1 °F 38.1 °F 30.1 in Calm     86 % 0.02 in 0.0 W/m2 CLR
01:33 41.9 °F 38.3 °F 30.1 in Calm     87 % 0.02 in 0.0 W/m2 CLR
01:38 41.7 °F 38.1 °F 30.1 in Calm     87 % 0.02 in 0.0 W/m2 CLR
01:43 41.5 °F 38.3 °F 30.1 in Calm     88 % 0.02 in 0.0 W/m2 CLR
01:48 41.4 °F 38.1 °F 30.1 in Calm     88 % 0.02 in 0.0 W/m2 CLR
01:53 41.4 °F 38.5 °F 30.1 in Calm     89 % 0.02 in 0.0 W/m2 CLR
01:58 41.2 °F 38.1 °F 30.1 in Calm     89 % 0.02 in 0.0 W/m2 CLR
02:03 41.2 °F 38.1 °F 30.1 in Calm     89 % 0.02 in 0.0 W/m2 CLR
02:08 41 °F 38.3 °F 30.1 in Calm     90 % 0.02 in 0.0 W/m2 CLR
02:13 40.8 °F 38.1 °F 30.1 in Calm     90 % 0.01 in 0.0 W/m2 CLR
02:18 40.8 °F 38.1 °F 30.1 in Calm     90 % 0 in 0.0 W/m2 CLR
02:23 40.8 °F 38.1 °F 30.1 in Calm     90 % 0 in 0.0 W/m2 CLR
02:28 40.8 °F 38.1 °F 30.1 in Calm     90 % 0 in 0.0 W/m2 CLR
02:33 40.8 °F 38.1 °F 30.1 in Calm     90 % 0 in 0.0 W/m2 CLR
02:38 41 °F 38.3 °F 30.1 in Calm     90 % 0 in 0.0 W/m2 CLR
02:43 41 °F 38.3 °F 30.1 in Calm     90 % 0 in 0.0 W/m2 CLR
02:48 41.2 °F 38.5 °F 30.1 in Calm     90 % 0 in 0.0 W/m2 CLR
02:53 41.2 °F 38.1 °F 30.1 in Calm     89 % 0 in 0.0 W/m2 CLR
02:58 41.2 °F 38.1 °F 30.1 in Calm     89 % 0 in 0.0 W/m2 CLR
03:03 41.4 °F 37.9 °F 30.1 in Calm     88 % 0 in 0.0 W/m2 CLR
03:08 41.2 °F 37.9 °F 30.1 in Calm     88 % 0 in 0.0 W/m2 CLR
03:13 41.2 °F 37.8 °F 30.1 in Calm     88 % 0 in 0.0 W/m2 CLR
03:18 41.2 °F 37.8 °F 30.1 in Calm     88 % 0 in 0.0 W/m2 CLR
03:23 41.2 °F 37.8 °F 30.1 in Calm     88 % 0 in 0.0 W/m2 CLR
03:28 41.2 °F 37.8 °F 30.1 in Calm     88 % 0 in 0.0 W/m2 CLR
03:33 41 °F 37.4 °F 30.1 in Calm     87 % 0 in 0.0 W/m2 CLR
03:38 40.6 °F 37.4 °F 30.1 in Calm     88 % 0 in 0.0 W/m2 CLR
03:43 40.6 °F 37.4 °F 30.1 in Calm     88 % 0 in 0.0 W/m2 CLR
03:48 40.6 °F 37.2 °F 30.1 in Calm     88 % 0 in 0.0 W/m2 CLR
03:53 40.6 °F 37.2 °F 30.1 in Calm     88 % 0 in 0.0 W/m2 CLR
03:58 40.6 °F 37.4 °F 30.1 in Calm     88 % 0 in 0.0 W/m2 CLR
04:03 40.6 °F 37.2 °F 30.1 in Calm     88 % 0 in 0.0 W/m2 CLR
04:08 40.5 °F 37.2 °F 30.1 in Calm     88 % 0 in 0.0 W/m2 CLR
04:13 40.3 °F 37 °F 30.1 in Calm     88 % 0 in 0.0 W/m2 CLR
04:18 40.3 °F 37 °F 30.1 in Calm     88 % 0 in 0.0 W/m2 CLR
04:23 40.3 °F 37 °F 30.1 in Calm     88 % 0 in 0.0 W/m2 CLR
04:28 40.3 °F 37 °F 30.1 in Calm     88 % 0 in 0.0 W/m2 CLR
04:33 40.5 °F 37 °F 30.1 in Calm     88 % 0 in 0.0 W/m2 CLR
04:38 40.6 °F 37.2 °F 30.1 in Calm     88 % 0 in 0.0 W/m2 CLR
04:43 40.6 °F 37 °F 30.1 in Calm     87 % 0 in 0.0 W/m2 CLR
04:48 40.6 °F 37 °F 30.1 in Calm     87 % 0 in 0.0 W/m2 CLR
04:53 40.6 °F 37 °F 30.1 in Calm     87 % 0 in 0.0 W/m2 CLR
04:58 40.6 °F 37 °F 30.1 in Calm     87 % 0 in 0.0 W/m2 CLR
05:03 40.6 °F 36.9 °F 30.1 in Calm     86 % 0 in 0.0 W/m2 CLR
05:08 40.8 °F 37.2 °F 30.1 in Calm     87 % 0 in 0.0 W/m2 CLR
05:13 40.8 °F 37.2 °F 30.1 in Calm     87 % 0 in 0.0 W/m2 CLR
05:18 40.8 °F 36.9 °F 30.1 in Calm     86 % 0 in 0.0 W/m2 CLR
05:23 40.8 °F 36.9 °F 30.1 in Calm     86 % 0 in 0.0 W/m2 CLR
05:28 41.2 °F 36.9 °F 30.1 in Calm     85 % 0 in 0.0 W/m2 CLR
05:33 41.2 °F 36.9 °F 30.1 in Calm     85 % 0 in 0.0 W/m2 CLR
05:39 41.2 °F 36.7 °F 30.1 in Calm     84 % 0 in 0.0 W/m2 CLR
05:44 41.2 °F 36.7 °F 30.1 in Calm     84 % 0 in 0.0 W/m2 CLR
05:49 41.2 °F 36.7 °F 30.1 in Calm     84 % 0 in 0.0 W/m2 CLR
05:54 41.2 °F 36.7 °F 30.1 in WSW 2.3 mph 2.3 mph 84 % 0 in 0.0 W/m2 CLR
05:59 41 °F 36.5 °F 30.1 in WSW 6 mph 6 mph 84 % 0 in 0.0 W/m2 CLR
06:04 41.2 °F 36.7 °F 30.1 in WSW 3.5 mph 3.5 mph 84 % 0 in 0.0 W/m2 CLR
06:09 41.2 °F 36.7 °F 30.1 in Calm     84 % 0 in 0.0 W/m2 CLR
06:14 41 °F 36.5 °F 30.1 in Calm     84 % 0 in 0.0 W/m2 CLR
06:19 41 °F 36.1 °F 30.1 in SW 3.5 mph 3.5 mph 83 % 0 in 0.0 W/m2 CLR
06:24 41.2 °F 36.3 °F 30.1 in WSW 5.8 mph 5.8 mph 83 % 0 in 0.0 W/m2 CLR
06:29 41.4 °F 36.1 °F 30.1 in WSW 6.9 mph 6.9 mph 82 % 0 in 0.0 W/m2 CLR
06:34 41.2 °F 36.1 °F 30.1 in WSW 3.5 mph 3.5 mph 82 % 0 in 0.0 W/m2 CLR
06:39 41.2 °F 36.1 °F 30.1 in WSW 8 mph 8 mph 82 % 0 in 0.0 W/m2 CLR
06:44 41.2 °F 36.3 °F 30.1 in Calm     83 % 0 in 0.0 W/m2 CLR
06:49 41.2 °F 36.3 °F 30.1 in Calm     83 % 0 in 0.0 W/m2 CLR
06:54 41 °F 36.1 °F 30.1 in Calm     83 % 0 in 0.0 W/m2 CLR
06:59 41 °F 36.5 °F 30.1 in Calm     84 % 0 in 0.0 W/m2 CLR
07:04 40.8 °F 36.3 °F 30.1 in Calm     84 % 0 in 0.0 W/m2 CLR
07:09 40.8 °F 36.3 °F 30.1 in Calm     84 % 0 in 0.0 W/m2 CLR
07:14 40.8 °F 36.3 °F 30.1 in Calm     84 % 0 in 0.0 W/m2 CLR
07:19 40.8 °F 36.3 °F 30.1 in Calm     84 % 0 in 0.0 W/m2 CLR
07:24 40.8 °F 36.3 °F 30.1 in Calm     84 % 0 in 0.0 W/m2 CLR
07:29 40.6 °F 36.1 °F 30.1 in Calm     84 % 0 in 0.0 W/m2 CLR
07:34 40.6 °F 36.1 °F 30.1 in Calm     84 % 0 in 0.0 W/m2 CLR
07:39 40.8 °F 36.3 °F 30.1 in Calm     84 % 0 in 0.0 W/m2 CLR
07:44 40.8 °F 36.3 °F 30.1 in Calm     84 % 0 in 0.0 W/m2 CLR
07:49 40.8 °F 36.3 °F 30.2 in Calm     84 % 0 in 0.0 W/m2 CLR
07:54 40.8 °F 36.3 °F 30.2 in Calm     84 % 0 in 0.0 W/m2 CLR
07:59 40.8 °F 36.3 °F 30.2 in Calm     84 % 0 in 0.0 W/m2 CLR
08:04 40.8 °F 36.3 °F 30.2 in Calm     84 % 0 in 0.0 W/m2 CLR
08:09 40.8 °F 36.3 °F 30.2 in Calm     84 % 0.01 in 0.0 W/m2 RA
08:14 40.8 °F 36.3 °F 30.2 in West 10.4 mph 10.4 mph 84 % 0.01 in 0.0 W/m2
08:19 40.8 °F 36.3 °F 30.2 in West 6.9 mph 6.9 mph 84 % 0.02 in 0.0 W/m2 RA
08:24 40.8 °F 36.7 °F 30.2 in Calm     85 % 0.02 in 0.0 W/m2
08:29 40.6 °F 36.7 °F 30.2 in Calm     86 % 0.02 in 12.0 W/m2 BKN
08:34 40.5 °F 36.9 °F 30.2 in Calm     87 % 0.02 in 26.0 W/m2 BKN
08:39 40.5 °F 36.9 °F 30.2 in WSW 6.9 mph 6.9 mph 87 % 0.02 in 30.0 W/m2 BKN
08:44 40.5 °F 36.9 °F 30.2 in WNW 9.2 mph 9.2 mph 87 % 0.02 in 25.0 W/m2 BKN
08:49 40.6 °F 37 °F 30.2 in WNW 8.1 mph 8.1 mph 87 % 0.02 in 23.0 W/m2 BKN
08:54 40.6 °F 37 °F 30.2 in WNW 10.4 mph 10.4 mph 87 % 0.02 in 21.0 W/m2 BKN
08:59 40.6 °F 37 °F 30.2 in WNW 8.1 mph 8.1 mph 87 % 0.02 in 23.0 W/m2 RA
09:04 40.8 °F 37.2 °F 30.2 in WNW 11.5 mph 11.5 mph 87 % 0.02 in 33.0 W/m2 BKN
09:09 40.8 °F 37 °F 30.2 in West 11.5 mph 11.5 mph 86 % 0.02 in 37.0 W/m2 BKN
09:14 41 °F 37.4 °F 30.2 in WNW 10.4 mph 10.4 mph 87 % 0.02 in 44.0 W/m2 BKN
09:19 41 °F 37.4 °F 30.2 in WNW 12.7 mph 12.7 mph 87 % 0.01 in 58.0 W/m2 BKN
09:24 41 °F 37.4 °F 30.2 in WNW 11.5 mph 11.5 mph 87 % 0.01 in 70.0 W/m2 BKN
09:29 41.2 °F 37.6 °F 30.2 in WNW 12 mph 12 mph 87 % 0.01 in 77.0 W/m2 BKN
09:34 41.4 °F 37.4 °F 30.2 in WNW 10.4 mph 10.4 mph 86 % 0.01 in 69.0 W/m2 BKN
09:39 41.5 °F 37.6 °F 30.2 in WNW 11.5 mph 11.5 mph 86 % 0.01 in 69.0 W/m2 BKN
09:44 41.5 °F 37.4 °F 30.2 in WNW 11.5 mph 11.5 mph 85 % 0.01 in 62.0 W/m2 BKN
09:49 41.7 °F 37.6 °F 30.2 in WNW 11.5 mph 11.5 mph 85 % 0.01 in 69.0 W/m2 BKN
09:54 41.9 °F 37.8 °F 30.2 in WNW 11.5 mph 11.5 mph 85 % 0.01 in 74.0 W/m2 BKN
09:59 42.1 °F 37.8 °F 30.2 in West 12.7 mph 12.7 mph 85 % 0 in 90.0 W/m2 BKN
10:04 42.1 °F 37.6 °F 30.2 in WNW 12.7 mph 12.7 mph 84 % 0 in 88.0 W/m2 BKN
10:09 42.4 °F 37.6 °F 30.2 in WNW 11.5 mph 11.5 mph 83 % 0 in 142.0 W/m2 BKN
10:14 42.6 °F 37.6 °F 30.2 in West 13 mph 13 mph 82 % 0 in 125.0 W/m2 BKN
10:19 42.8 °F 37.8 °F 30.2 in West 16.1 mph 16.1 mph 82 % 0 in 83.0 W/m2 BKN
10:24 43 °F 37.8 °F 30.2 in WNW 11.5 mph 11.5 mph 82 % 0 in 97.0 W/m2 BKN
10:29 43 °F 37.6 °F 30.2 in WNW 12.7 mph 12.7 mph 81 % 0 in 109.0 W/m2 BKN
10:34 43 °F 37.8 °F 30.2 in WNW 12 mph 12 mph 82 % 0 in 155.0 W/m2 BKN
10:39 43.2 °F 37.8 °F 30.2 in WNW 16 mph 16 mph 81 % 0 in 174.0 W/m2 BKN
10:44 43.3 °F 37.9 °F 30.2 in WNW 14 mph 14 mph 81 % 0 in 216.0 W/m2 BKN
10:49 43.5 °F 38.1 °F 30.2 in WNW 14 mph 14 mph 81 % 0 in 246.0 W/m2 BKN
10:54 44.1 °F 38.1 °F 30.2 in WNW 12.7 mph 12.7 mph 80 % 0 in 162.0 W/m2 SCT
10:59 44.1 °F 38.1 °F 30.2 in WNW 12.7 mph 12.7 mph 80 % 0 in 155.0 W/m2 BKN
11:04 43.9 °F 37.8 °F 30.2 in WNW 11.5 mph 11.5 mph 79 % 0 in 144.0 W/m2 BKN
11:09 43.9 °F 37.8 °F 30.2 in WNW 14 mph 14 mph 79 % 0 in 163.0 W/m2 BKN
11:14 44.1 °F 37.9 °F 30.2 in WNW 11.5 mph 11.5 mph 79 % 0 in 114.0 W/m2 BKN
11:19 44.1 °F 37.8 °F 30.2 in WNW 12.7 mph 12.7 mph 78 % 0 in 100.0 W/m2 BKN
11:24 44.2 °F 37.8 °F 30.2 in WNW 15 mph 15 mph 78 % 0 in 107.0 W/m2 BKN
11:29 44.4 °F 37.9 °F 30.2 in WNW 10.4 mph 10.4 mph 78 % 0 in 130.0 W/m2 BKN
11:34 44.6 °F 38.1 °F 30.2 in WNW 11.5 mph 11.5 mph 78 % 0 in 139.0 W/m2 BKN
11:40 44.8 °F 37.8 °F 30.2 in WNW 16.1 mph 16.1 mph 76 % 0 in 135.0 W/m2 BKN
11:44 45 °F 37.6 °F 30.2 in WNW 13.8 mph 13.8 mph 75 % 0 in 125.0 W/m2 BKN
11:50 45 °F 37.9 °F 30.2 in WNW 10.4 mph 10.4 mph 76 % 0 in 158.0 W/m2 BKN
11:55 45.1 °F 38.1 °F 30.2 in WNW 11.5 mph 11.5 mph 76 % 0 in 162.0 W/m2 BKN
12:00 45.3 °F 38.1 °F 30.2 in WNW 11.5 mph 11.5 mph 76 % 0 in 155.0 W/m2 BKN
12:05 45.1 °F 37.8 °F 30.2 in WNW 15 mph 15 mph 75 % 0 in 142.0 W/m2 BKN
12:10 45.3 °F 37.8 °F 30.2 in WNW 12.7 mph 12.7 mph 75 % 0 in 148.0 W/m2 BKN
12:15 45.3 °F 37.8 °F 30.2 in WNW 11.5 mph 11.5 mph 75 % 0 in 158.0 W/m2 BKN
12:20 45.3 °F 37.9 °F 30.2 in WNW 9.2 mph 9.2 mph 75 % 0 in 148.0 W/m2 BKN
12:25 45.5 °F 37.8 °F 30.2 in WNW 11.5 mph 11.5 mph 74 % 0 in 160.0 W/m2 BKN
12:30 45.7 °F 37.8 °F 30.2 in WNW 10.4 mph 10.4 mph 74 % 0 in 171.0 W/m2 BKN
12:35 45.7 °F 37.8 °F 30.2 in NW 12 mph 12 mph 74 % 0 in 158.0 W/m2 BKN
12:40 45.7 °F 37.4 °F 30.2 in WNW 10.4 mph 10.4 mph 73 % 0 in 135.0 W/m2 BKN
12:45 45.7 °F 37.4 °F 30.2 in WNW 10.4 mph 10.4 mph 73 % 0 in 123.0 W/m2 BKN
12:50 45.7 °F 37 °F 30.1 in WNW 4.6 mph   72 % 0 in 144.0 W/m2 BKN
12:55 45.7 °F 37.6 °F 30.1 in Calm     73 % 0 in 197.0 W/m2 BKN
13:00 45.9 °F 37.8 °F 30.1 in NW 13.8 mph 13.8 mph 73 % 0 in 248.0 W/m2 BKN
13:05 46 °F 37.8 °F 30.1 in WNW 9.2 mph 9.2 mph 73 % 0 in 216.0 W/m2 BKN
13:10 46.2 °F 37.8 °F 30.1 in West 10.4 mph 10.4 mph 72 % 0 in 183.0 W/m2 BKN
13:15 46.2 °F 37.4 °F 30.1 in NW 15 mph 15 mph 71 % 0 in 176.0 W/m2 BKN
13:20 46.4 °F 38.1 °F 30.1 in NW 11.5 mph 11.5 mph 73 % 0 in 241.0 W/m2 BKN
13:25 46.6 °F 37.9 °F 30.1 in WNW 11.5 mph 11.5 mph 72 % 0 in 285.0 W/m2 BKN
13:30 46.6 °F 37.8 °F 30.1 in WNW 10.4 mph 10.4 mph 71 % 0 in 264.0 W/m2 SCT
13:35 46.8 °F 37.8 °F 30.1 in WNW 6 mph 6 mph 71 % 0 in 230.0 W/m2 SCT
13:40 46.9 °F 38.3 °F 30.1 in WNW 11.5 mph 11.5 mph 72 % 0 in 322.0 W/m2 SCT
13:45 47.1 °F 38.5 °F 30.1 in WNW 9.2 mph 9.2 mph 72 % 0 in 262.0 W/m2 SCT
13:50 47.1 °F 38.7 °F 30.1 in WNW 8.1 mph 8.1 mph 72 % 0 in 211.0 W/m2 SCT
13:55 47.3 °F 38.7 °F 30.1 in West 9.2 mph 9.2 mph 72 % 0 in 230.0 W/m2 BKN
14:00 47.5 °F 38.1 °F 30.1 in WNW 9.2 mph 9.2 mph 70 % 0 in 234.0 W/m2 BKN
14:05 47.5 °F 38.8 °F 30.1 in WNW 8.1 mph 8.1 mph 72 % 0 in 244.0 W/m2 SCT
14:10 47.5 °F 37.8 °F 30.1 in WNW 10.4 mph 10.4 mph 69 % 0 in 221.0 W/m2 SCT
14:15 47.7 °F 38.5 °F 30.1 in WNW 9.2 mph 9.2 mph 70 % 0 in 262.0 W/m2 SCT
14:20 47.8 °F 38.8 °F 30.1 in WNW 9.2 mph 9.2 mph 71 % 0 in 267.0 W/m2 SCT
14:25 48 °F 38.3 °F 30.1 in NW 9.2 mph 9.2 mph 69 % 0 in 232.0 W/m2 SCT
14:30 48 °F 38.3 °F 30.1 in NW 11.5 mph 11.5 mph 69 % 0 in 345.0 W/m2 SCT
14:35 48.2 °F 38.5 °F 30.1 in NW 10.4 mph 10.4 mph 69 % 0 in 316.0 W/m2 FEW
14:40 48.6 °F 37.9 °F 30.1 in WNW 11.5 mph 11.5 mph 67 % 0 in 334.0 W/m2 CLR
14:45 48.7 °F 38.7 °F 30.1 in WNW 11.5 mph 11.5 mph 68 % 0 in 299.0 W/m2 CLR
14:50 48.7 °F 38.7 °F 30.1 in WNW 9.2 mph 9.2 mph 68 % 0 in 202.0 W/m2 FEW
14:55 48.7 °F 39.4 °F 30.1 in WNW 8.1 mph 8.1 mph 70 % 0 in 209.0 W/m2 SCT
15:00 48.6 °F 38.5 °F 30.1 in NW 11 mph 11 mph 68 % 0 in 232.0 W/m2 SCT
15:05 48.6 °F 38.5 °F 30.1 in NW 11.5 mph 11.5 mph 68 % 0 in 206.0 W/m2 SCT
15:10 48.6 °F 38.8 °F 30.1 in NW 5.8 mph 5.8 mph 69 % 0 in 174.0 W/m2 SCT
15:15 48.6 °F 38.5 °F 30.1 in WNW 9.2 mph 9.2 mph 68 % 0 in 178.0 W/m2 SCT
15:20 48.6 °F 38.8 °F 30.1 in NW 5.8 mph 5.8 mph 69 % 0 in 181.0 W/m2 SCT
15:25 48.7 °F 38.7 °F 30.1 in NW 8.1 mph 8.1 mph 68 % 0 in 167.0 W/m2 SCT
15:30 48.7 °F 38.3 °F 30.1 in WNW 6.9 mph 6.9 mph 67 % 0 in 174.0 W/m2 SCT
15:35 48.7 °F 37.9 °F 30.1 in WNW 13.8 mph 13.8 mph 66 % 0 in 190.0 W/m2 SCT
15:40 48.7 °F 37.9 °F 30.1 in NW 11.5 mph 11.5 mph 66 % 0 in 172.0 W/m2 FEW
15:45 48.7 °F 38.3 °F 30.1 in NW 9.2 mph 9.2 mph 67 % 0 in 148.0 W/m2 FEW
15:50 48.7 °F 38.7 °F 30.1 in WNW 10 mph 10 mph 68 % 0 in 118.0 W/m2 SCT
15:55 48.7 °F 38.7 °F 30.1 in WNW 9.2 mph 9.2 mph 68 % 0 in 132.0 W/m2 SCT
16:00 48.7 °F 38.3 °F 30.1 in WNW 10.4 mph 10.4 mph 67 % 0 in 153.0 W/m2 FEW
16:05 48.9 °F 38.5 °F 30.1 in WNW 9.2 mph 9.2 mph 67 % 0 in 197.0 W/m2 CLR
16:10 49.1 °F 38.7 °F 30.1 in WNW 9.2 mph 9.2 mph 67 % 0 in 218.0 W/m2 CLR
16:15 49.5 °F 38.7 °F 30.1 in WNW 8 mph 8 mph 66 % 0 in 227.0 W/m2 CLR
16:20 49.8 °F 38.8 °F 30.1 in WNW 5 mph 5 mph 66 % 0 in 230.0 W/m2 CLR
16:25 49.8 °F 38.8 °F 30.1 in WNW 9.2 mph 9.2 mph 66 % 0 in 209.0 W/m2 CLR
16:30 50 °F 38.7 °F 30.1 in WNW 10.4 mph 10.4 mph 65 % 0 in 264.0 W/m2 CLR
16:35 50.4 °F 39 °F 30.1 in WNW 8.1 mph 8.1 mph 65 % 0 in 260.0 W/m2 CLR
16:40 50.5 °F 39.4 °F 30.1 in WNW 8.1 mph 8.1 mph 65 % 0 in 199.0 W/m2 CLR
16:45 50.5 °F 38.8 °F 30.1 in WNW 9.2 mph 9.2 mph 64 % 0.01 in 146.0 W/m2 RA
16:50 50.4 °F 38.7 °F 30.1 in WNW 6 mph 6 mph 64 % 0.01 in 158.0 W/m2 CLR
16:55 50.5 °F 39.2 °F 30.1 in WNW 9.2 mph 9.2 mph 65 % 0.01 in 156.0 W/m2 SCT
17:00 50.5 °F 38.8 °F 30.1 in WNW 5.8 mph 5.8 mph 64 % 0.01 in 130.0 W/m2 OVC
17:05 50.7 °F 39 °F 30.1 in WNW 9.2 mph 9.2 mph 64 % 0.01 in 111.0 W/m2 OVC
17:10 50.5 °F 38.5 °F 30.1 in WNW 8.1 mph 8.1 mph 63 % 0.01 in 95.0 W/m2 OVC
17:15 50.4 °F 37.9 °F 30.1 in WNW 10.4 mph 10.4 mph 62 % 0.01 in 90.0 W/m2 OVC
17:20 50.4 °F 37.4 °F 30.1 in WNW 8.1 mph 8.1 mph 61 % 0.01 in 84.0 W/m2 OVC
17:25 50.4 °F 38.3 °F 30.1 in West 8.1 mph 8.1 mph 63 % 0.01 in 76.0 W/m2 OVC
17:30 50.4 °F 37.9 °F 30.1 in West 6.9 mph 6.9 mph 62 % 0.01 in 51.0 W/m2 OVC
17:35 50.4 °F 38.1 °F 30.1 in West 8.1 mph 8.1 mph 63 % 0.01 in 30.0 W/m2 OVC
17:40 50.2 °F 37.9 °F 30.1 in West 4.6 mph 4.6 mph 63 % 0.01 in 18.0 W/m2 OVC
17:45 50 °F 37.9 °F 30.1 in West 6.9 mph 6.9 mph 63 % 0 in 11.0 W/m2 OVC
17:50 49.8 °F 37.4 °F 30.1 in Calm     62 % 0 in 7.0 W/m2 OVC
17:55 49.6 °F 36.9 °F 30.1 in West 5.8 mph 5.8 mph 61 % 0 in 5.0 W/m2 OVC
18:01 49.6 °F 36.9 °F 30.1 in West 8.1 mph 8.1 mph 61 % 0 in 0.0 W/m2 OVC
18:06 49.5 °F 36.7 °F 30.1 in West 4 mph 4 mph 61 % 0 in 0.0 W/m2 OVC
18:11 49.5 °F 36.1 °F 30.1 in West 5.8 mph 5.9 mph 60 % 0 in 0.0 W/m2 CLR
18:16 49.5 °F 36.1 °F 30.1 in West 5.8 mph 5.8 mph 60 % 0 in 0.0 W/m2 CLR
18:21 49.3 °F 36 °F 30.1 in West 8.1 mph 8.1 mph 60 % 0 in 0.0 W/m2 CLR
18:26 49.3 °F 36 °F 30.1 in West 4.6 mph 4.6 mph 60 % 0 in 0.0 W/m2 CLR
18:31 49.1 °F 35.8 °F 30.1 in West 6.9 mph 6.9 mph 60 % 0 in 0.0 W/m2 CLR
18:36 48.9 °F 35.8 °F 30.1 in West 11.5 mph 11.5 mph 60 % 0 in 0.0 W/m2 CLR
18:41 48.9 °F 35.6 °F 30.1 in WNW 9.2 mph 9.2 mph 60 % 0 in 0.0 W/m2 CLR
18:46 48.7 °F 35.4 °F 30.1 in WNW 8.1 mph 8.1 mph 60 % 0 in 0.0 W/m2 CLR
18:51 48.9 °F 35.6 °F 30.1 in WNW 12.7 mph 12.7 mph 60 % 0 in 0.0 W/m2 CLR
18:56 48.9 °F 35.6 °F 30.1 in West 10.4 mph 10.4 mph 60 % 0 in 0.0 W/m2 CLR
19:01 48.7 °F 35.4 °F 30.1 in West 12.7 mph 12.7 mph 60 % 0 in 0.0 W/m2 CLR
19:06 48.7 °F 35.4 °F 30.1 in West 8.1 mph 8.1 mph 60 % 0 in 0.0 W/m2 CLR
19:11 48.6 °F 35.8 °F 30.1 in West 15 mph 15 mph 61 % 0 in 0.0 W/m2 CLR
19:16 48.4 °F 35.4 °F 30.1 in West 10.4 mph 10.4 mph 61 % 0 in 0.0 W/m2 CLR
19:21 48.4 °F 35.4 °F 30.1 in West 11.5 mph 11.5 mph 61 % 0 in 0.0 W/m2 CLR
19:26 48 °F 35.8 °F 30.1 in West 9.2 mph 9.2 mph 62 % 0 in 0.0 W/m2 CLR
19:31 48 °F 35.6 °F 30.1 in West 13 mph 13 mph 62 % 0 in 0.0 W/m2 CLR
19:36 47.8 °F 36 °F 30.1 in WNW 11.5 mph 11.5 mph 63 % 0 in 0.0 W/m2 CLR
19:41 47.7 °F 35.8 °F 30.1 in WNW 12.7 mph 12.7 mph 63 % 0 in 0.0 W/m2 CLR
19:46 47.7 °F 35.2 °F 30.1 in West 12.7 mph 12.7 mph 62 % 0 in 0.0 W/m2 CLR
19:51 47.7 °F 35.2 °F 30.1 in West 9 mph 9 mph 62 % 0 in 0.0 W/m2 CLR
19:56 47.5 °F 35.1 °F 30.1 in West 10.4 mph 10.4 mph 62 % 0 in 0.0 W/m2 CLR
20:01 47.5 °F 35.1 °F 30.1 in West 3.5 mph 3.5 mph 62 % 0 in 0.0 W/m2 CLR
20:06 47.1 °F 35.2 °F 30.1 in West 13.8 mph 13.8 mph 63 % 0 in 0.0 W/m2 CLR
20:11 47.1 °F 35.1 °F 30.1 in West 10.4 mph 10.4 mph 63 % 0 in 0.0 W/m2 CLR
20:16 47.1 °F 35.1 °F 30.1 in WNW 9.2 mph 9.2 mph 63 % 0 in 0.0 W/m2 CLR
20:21 46.9 °F 35.4 °F 30.1 in WNW 11.5 mph 11.5 mph 64 % 0 in 0.0 W/m2 CLR
20:26 46.8 °F 35.2 °F 30.1 in WNW 8.1 mph 8.1 mph 64 % 0 in 0.0 W/m2 CLR
20:31 46.8 °F 35.2 °F 30.1 in West 3.5 mph 3.5 mph 64 % 0 in 0.0 W/m2 CLR
20:36 46.6 °F 35.1 °F 30.1 in West 5.8 mph 5.8 mph 64 % 0 in 0.0 W/m2 CLR
20:41 46.6 °F 35.1 °F 30.1 in West 9.2 mph 9.2 mph 64 % 0 in 0.0 W/m2 CLR
20:46 46.6 °F 35.1 °F 30.1 in West 11.5 mph 11.5 mph 64 % 0 in 0.0 W/m2 CLR
20:51 46.6 °F 35.1 °F 30.1 in WNW 8.1 mph 8.1 mph 64 % 0 in 0.0 W/m2 CLR
20:56 46.6 °F 34.5 °F 30.1 in WNW 12.7 mph 12.7 mph 63 % 0 in 0.0 W/m2 CLR
21:01 46.4 °F 35.2 °F 30.2 in West 9.2 mph 9.2 mph 65 % 0 in 0.0 W/m2 CLR
21:06 46.4 °F 34.5 °F 30.2 in West 5.8 mph 5.8 mph 63 % 0 in 0.0 W/m2 CLR
21:11 46.2 °F 34.9 °F 30.2 in West 8.1 mph 8.1 mph 64 % 0 in 0.0 W/m2 CLR
21:16 46.2 °F 34.9 °F 30.2 in West 6.9 mph 6.9 mph 64 % 0 in 0.0 W/m2 CLR
21:21 46.2 °F 34.9 °F 30.2 in West 9.2 mph 9.2 mph 64 % 0 in 0.0 W/m2 CLR
21:26 46.2 °F 34.7 °F 30.2 in West 9.2 mph 9.2 mph 64 % 0 in 0.0 W/m2 CLR
21:31 46 °F 34.5 °F 30.2 in West 2.3 mph   64 % 0 in 0.0 W/m2 CLR
21:36 45.9 °F 34.9 °F 30.2 in Calm     65 % 0 in 0.0 W/m2 CLR
21:41 45.7 °F 34.5 °F 30.2 in Calm     65 % 0 in 0.0 W/m2 CLR
21:46 45.7 °F 34.5 °F 30.2 in Calm     65 % 0 in 0.0 W/m2 CLR
21:51 45.5 °F 34.3 °F 30.2 in Calm     65 % 0 in 0.0 W/m2 CLR
21:56 45.5 °F 34.3 °F 30.2 in West 8 mph 8 mph 65 % 0 in 0.0 W/m2 CLR
22:01 45.5 °F 34.9 °F 30.2 in West 6.9 mph 6.9 mph 66 % 0 in 0.0 W/m2 CLR
22:06 45.3 °F 34.5 °F 30.2 in West 8.1 mph 8.1 mph 66 % 0 in 0.0 W/m2 CLR
22:11 45.1 °F 34.5 °F 30.2 in West 10.4 mph 10.4 mph 66 % 0 in 0.0 W/m2 CLR
22:16 45 °F 34.7 °F 30.2 in West 10.4 mph 10.4 mph 67 % 0 in 0.0 W/m2 CLR
22:21 45 °F 34.7 °F 30.2 in West 11.5 mph 11.5 mph 67 % 0 in 0.0 W/m2 CLR
22:27 44.8 °F 34.9 °F 30.2 in West 7 mph 7 mph 68 % 0 in 0.0 W/m2 CLR
22:32 44.8 °F 34.9 °F 30.2 in WNW 12.7 mph 12.7 mph 68 % 0.01 in 0.0 W/m2 RA
22:37 44.6 °F 34.7 °F 30.2 in West 9.2 mph 9.2 mph 68 % 0.01 in 0.0 W/m2 CLR
22:42 44.4 °F 34.5 °F 30.2 in West 15 mph 15 mph 68 % 0.01 in 0.0 W/m2 CLR
22:47 44.4 °F 35.1 °F 30.2 in West 10 mph 10 mph 69 % 0.01 in 0.0 W/m2 CLR
22:52 44.4 °F 34.9 °F 30.2 in West 11.5 mph 11.5 mph 69 % 0.01 in 0.0 W/m2 CLR
22:57 44.4 °F 34.9 °F 30.2 in West 7 mph 7.9 mph 69 % 0.01 in 0.0 W/m2 CLR
23:02 44.4 °F 34.9 °F 30.2 in West 11.5 mph 11.5 mph 69 % 0.01 in 0.0 W/m2 CLR
23:07 44.2 °F 34.9 °F 30.2 in West 6 mph 6 mph 69 % 0.01 in 0.0 W/m2 CLR
23:12 44.2 °F 34.9 °F 30.2 in West 11.5 mph 11.5 mph 69 % 0.01 in 0.0 W/m2 CLR
23:17 44.2 °F 34.7 °F 30.2 in West 9.2 mph 9.2 mph 69 % 0.01 in 0.0 W/m2 CLR
23:22 44.1 °F 34.9 °F 30.2 in West 6.9 mph 6.9 mph 70 % 0.01 in 0.0 W/m2 CLR
23:27 44.1 °F 34.9 °F 30.2 in Calm     70 % 0.01 in 0.0 W/m2 CLR
23:32 43.9 °F 34.7 °F 30.2 in West 7 mph 7 mph 70 % 0 in 0.0 W/m2 CLR
23:37 43.9 °F 34.5 °F 30.2 in West 8 mph 8 mph 70 % 0 in 0.0 W/m2 CLR
23:42 43.9 °F 34.5 °F 30.2 in West 5.8 mph 5.8 mph 70 % 0 in 0.0 W/m2 CLR
23:47 43.9 °F 34.5 °F 30.2 in West 8.1 mph 8.1 mph 70 % 0 in 0.0 W/m2 CLR
23:52 43.7 °F 34.5 °F 30.2 in West 8.1 mph 8.1 mph 70 % 0 in 0.0 W/m2 CLR
23:57 43.5 °F 34.5 °F 30.2 in West 8.1 mph 8.1 mph 70 % 0 in 0.0 W/m2 CLR
Lo Temps de Massalio
Compliments of Weather Underground - 1.25 mb